Home   Weather   Wernigerode   Past weeks

Flag for Germany Past Weather in Wernigerode, Saxony-Anhalt, Germany — Yesterday and Last 2 Weeks

45 °F

Light rain. Low clouds.

Feels Like: 40 °F
Forecast: 37 / 39 °F
Wind: 8 mph from Northwest

Location: Braunschweig Wolfsburg

Current Time: Oct 21, 2016 at 1:15:18 PM

Latest Report: Oct 21, 2016 at 12:20 PM

Visibility: 3 mi

Pressure: 29.89 "Hg

Humidity: 100%

Dew Point: 45 °F

Location of WernigerodeLocation

Past Weather in Wernigerode — Graph


Wernigerode Temperature Yesterday

Maximum temperature yesterday: 48 °F (at 2:20 PM)
Minimum temperature yesterday: 41 °F (at 8:50 PM)
Average temperature yesterday: 44 °F

High & Low Weather Summary for the Past Weeks

High64 °F (Oct 16, 1:50 PM)100% (Oct 7, 6:50 AM)30.24 "Hg (Oct 7, 6:50 AM)
Low39 °F (Oct 9, 7:50 AM)56% (Oct 16, 1:50 PM)29.80 "Hg (Oct 19, 7:50 PM)
Average49 °F87%30.08 "Hg
* Reported Oct 6 11:20 AM — Oct 21 11:50 AM, Wernigerode, Weather by CustomWeather, © 2016

Note: Actual official high and low records may vary slightly from our data, if they occured in-between our weather recording intervals... More about our weather records


Wernigerode Weather History for the Previous 24 Hours

Scroll right to see more
Time TempWeatherWind HumidityBarometerVisibility
11:50 AM
Fri, Oct 21
45 °FLight rain. Low clouds.6 mph100%29.89 "Hg3 mi
11:20 AM45 °FLight rain. Low clouds.8 mph93%29.89 "Hg4 mi
10:50 AM45 °FLight rain. Mostly cloudy.6 mph93%29.89 "Hg3 mi
10:20 AM45 °FLight rain. Low clouds.7 mph93%29.89 "Hg3 mi
9:50 AM45 °FLight rain. Low clouds.7 mph93%29.89 "Hg3 mi
9:20 AM45 °FLight rain. Low clouds.7 mph93%29.89 "Hg4 mi
8:50 AM43 °FFog.7 mph100%29.89 "Hg3 mi
8:20 AM43 °FFog.7 mph100%29.89 "Hg3 mi
7:50 AM43 °FLight rain. Fog.7 mph100%29.89 "Hg3 mi
7:20 AM43 °FRain. Fog.6 mph100%29.89 "Hg2 mi
6:50 AM43 °FFog.7 mph100%29.89 "Hg3 mi
9:50 PM
Thu, Oct 20
43 °FPartly cloudy.5 mph93%29.92 "Hg4 mi
9:20 PM41 °FPassing clouds.1 mph93%29.92 "Hg5 mi
8:50 PM41 °FPassing clouds.No wind93%29.92 "Hg4 mi
8:20 PM43 °FPassing clouds.2 mph93%29.92 "Hg4 mi
7:50 PM43 °FRain. Mostly cloudy.No wind93%29.92 "Hg6 mi
7:20 PM43 °FLight rain. Mostly cloudy.3 mph93%29.92 "Hg6 mi
6:50 PM43 °FLight rain. Partly cloudy.3 mph93%29.92 "HgN/A
6:20 PM43 °FLight rain. Mostly cloudy.No wind93%29.92 "Hg6 mi
5:50 PM43 °FLight rain. Mostly cloudy.No wind93%29.92 "HgN/A
5:20 PM43 °FRain showers. Cloudy.8 mph93%29.92 "Hg2 mi
4:50 PM48 °FBroken clouds.2 mph82%29.92 "HgN/A
4:20 PM48 °FBroken clouds.2 mph82%29.92 "HgN/A
3:50 PM48 °FMostly cloudy.1 mph82%29.92 "HgN/A
3:20 PM48 °FMostly cloudy.3 mph76%29.92 "HgN/A
2:50 PM48 °FMostly cloudy.2 mph76%29.92 "HgN/A
2:20 PM48 °FPartly sunny.2 mph82%29.92 "HgN/A
1:50 PM46 °FBroken clouds.3 mph87%29.92 "HgN/A
1:20 PM46 °FMostly cloudy.5 mph93%29.92 "HgN/A
Weather by CustomWeather, © 2016

See weather overviewHow to use our weather pages